Regional Weather Roundup
Issued by NWS Sioux Falls, SD

Home | Current Version | Previous Version | Text Only | Print | Product List | Glossary On
Versions: 1 2 3 4 5 6 7 8 9 10 11 12 13 14 15 16 17 18 19 20 21 22 23 24 25 26 27 28 29 30 31 32 33 34 35 36 37 38 39 40 41 42 43 44 45 46 47 48 49 50
000
ASUS43 KFSD 270310
RWRFSD

WEATHER ROUNDUP FOR SE SOUTH DAKOTA/SW MINNESOTA/NW IOWA
NATIONAL WEATHER SERVICE SIOUX FALLS SD
1000 PM CDT FRI AUG 26 2016

NOTE: "FAIR" INDICATES FEW OR NO CLOUDS BELOW 12,000 FEET WITH NO
SIGNIFICANT WEATHER AND OR OBSTRUCTIONS TO VISIBILITY.


SDZ038>040-050-052>070-270400-
SOUTHEAST SOUTH DAKOTA

CITY           SKY/WX    TMP DP  RH WIND       PRES   REMARKS
BROOKINGS      MOCLDY    64  58  80 SE5       30.09R
CHAMBERLAIN    PTCLDY    63  56  80 E5        30.04R
HURON          CLOUDY    65  56  72 SE6       30.04R
MADISON        CLOUDY    64  63  94 SE7       30.09R
MITCHELL       CLOUDY    68  58  70 SE10      30.05R
SIOUX FALLS    CLOUDY    67  59  75 SE12      30.08R
WINNER         FAIR      61  58  90 SE7       30.04R
YANKTON        CLOUDY    64  59  82 E7        30.05R
$$

MNZ071-072-080-081-089-090-097-098-270400-
SOUTHWEST MINNESOTA

CITY           SKY/WX    TMP DP  RH WIND       PRES   REMARKS
FAIRMONT       CLOUDY    63  60  90 E6        30.12S
JACKSON          N/A     63  57  82 E5        30.12S
LUVERNE        CLOUDY    61  55  82 SE8       30.10R
MARSHALL       MOCLDY    64  59  83 SE9       30.09R
MONTEVIDEO     PTCLDY    61  57  88 S6        30.11R
REDWOOD FALLS  CLOUDY    63  56  78 SE8       30.09F
TRACY          CLOUDY    64  59  85 SE5       30.10S
WINDOM         CLOUDY    63  57  82 E6        30.11F
WORTHINGTON    CLOUDY    61  59  93 E6        30.12R
$$

IAZ001>003-012>014-020>022-031-032-NEZ013-014-SDZ071-270400-
NORTHWEST IOWA

CITY           SKY/WX    TMP DP  RH WIND       PRES   REMARKS
CHEROKEE       CLOUDY    65  62  90 E6        30.10S
DENISON        CLOUDY    64  61  88 E8        30.07S FOG
ESTHERVILLE    CLOUDY    62  61  96 E6        30.11S
LE MARS        CLOUDY    66  61  82 SE5       30.09S
ORANGE CITY    CLOUDY    66  63  88 E6        30.09S
SHELDON        CLOUDY    63  61  94 E8        30.08S
SIOUX CITY     CLOUDY    65  60  84 E9        30.07S
SPENCER        CLOUDY    64  60  87 E8        30.11S
STORM LAKE     CLOUDY    64  61  88 E7        30.11S
$$

ABBREVIATIONS USED IN REMARKS
   TC - TEMPERATURE IN CELSIUS
  WCI - WIND CHILL INDEX
   HX - HEAT INDEX
  VSB - VISIBILITY





USA.gov is the U.S. government's official web portal to all federal, state and local government web resources and services.